Home > Weather > Durham > Past weeks

Flag for U.S.A. Weather for the Past 2 Weeks in Durham, North Carolina, U.S.A.

Now
27 °F

Partly cloudy.


Feels Like: 20 °F
Forecast: 25 / 38 °F
Wind: 6 mph from Northeast

Location: Raleigh-Durham International Airport

Current Time: Feb 12, 2016 at 3:42:21 AM

Latest Report: Feb 12, 2016 at 2:51 AM


Visibility: 10 mi

Pressure: 30.31 "Hg

Humidity: 42%

Dew point: 7 °F

Location of DurhamLocation

Historic Weather in Durham — Graph

°F

Durham Temperature Yesterday

Maximum temperature yesterday: 41 °F (at 3:51 PM)
Minimum temperature yesterday: 19 °F (at 6:51 AM)
Average temperature yesterday: 29 °F

High & Low Weather Summary for the Past Weeks

 TemperatureHumidityPressure
High72 °F (Feb 1, 2:51 PM)97% (Feb 1, 11:51 PM)30.47 "Hg (Feb 1, 11:51 PM)
Low19 °F (Feb 11, 6:51 AM)23% (Feb 11, 1:51 PM)29.60 "Hg (Feb 9, 3:51 AM)
Average44 °F62%30.02 "Hg
* Reported Jan 28 1:51 AM — Feb 12 1:51 AM, Durham, Weather by CustomWeather, © 2016

Note: Actual official high and low records may vary slightly from our data, if they occured in-between our weather recording intervals... More about our weather records

Advertising

Durham Weather History for the Previous 24 Hours

 ConditionsComfort  
Time TempWeatherWind HumidityBarometerVisibility
1:51 AM
Fri, Feb 12
27 °FPassing clouds.6 mph42%30.31 "Hg10 mi
12:51 AM28 °FPassing clouds.6 mph37%30.32 "Hg10 mi
11:51 PM
Thu, Feb 11
27 °FPassing clouds.7 mph41%30.31 "Hg10 mi
10:51 PM28 °FClear.7 mph43%30.30 "Hg10 mi
9:51 PM28 °FClear.7 mph49%30.30 "Hg10 mi
8:51 PM30 °FClear.5 mph47%30.28 "Hg10 mi
7:51 PM30 °FClear.No wind45%30.25 "Hg10 mi
6:51 PM34 °FClear.No wind37%30.23 "Hg10 mi
5:51 PM37 °FPassing clouds.3 mph31%30.21 "Hg10 mi
3:51 PM41 °FScattered clouds.7 mph24%30.16 "Hg10 mi
2:51 PM39 °FScattered clouds.6 mph24%30.16 "Hg10 mi
1:51 PM38 °FPassing clouds.14 mph23%30.17 "Hg10 mi
12:51 PM37 °FSunny.12 mph26%30.18 "Hg10 mi
11:51 AM35 °FSunny.13 mph28%30.21 "Hg10 mi
10:51 AM32 °FSunny.12 mph32%30.22 "Hg10 mi
9:51 AM29 °FSunny.12 mph38%30.22 "Hg10 mi
8:51 AM26 °FSunny.6 mph44%30.21 "Hg10 mi
7:51 AM21 °FSunny.No wind55%30.19 "Hg10 mi
6:51 AM19 °FClear.No wind57%30.18 "Hg10 mi
5:51 AM21 °FClear.No wind50%30.16 "Hg10 mi
4:51 AM22 °FClear.5 mph48%30.15 "Hg10 mi
3:51 AM23 °FClear.3 mph46%30.12 "Hg10 mi
Weather by CustomWeather, © 2016

See weather overviewHow to use our weather pages